RESURS-P 4

Last updated on Mon Sep 21 2026 00:02:46 GMT+0000 (Coordinated Universal Time)

1 59371U 24061A 26263.60183618 .00002115 00000+0 69614-4 0 9998 2 59371 97.2830 209.9073 0001703 130.3927 229.7464 15.32605965138370
UTC large
Height (km)
Speed (km/s)
/
Latitude / Longitude
Inclination (degrees)
Orbital Period (minutes)
Azimuth
Elevation
Range (km)
Doppler Factor

Next 0 passes for location: London (51.5072 / 0.1276)

No passes found over London.
RESURS-P 4